This demonstration page uses our WeatherBlox Daily Observations layout. Learn more.

Left ArrowRight Arrow

30.21309, -93.2044

Hourly Observations for May 4, 2015

Temp ( °F °C ) Dew Point ( °F °C ) Humidity (%) Winds ( mph kmh ) Pressure ( in mb ) Visibility ( mi km ) Precip ( " mm )
12:15 am 00:15 Clear 62 16.8 60 15.6 93 93 Calm 30.09 1019 10 16 0.00 0.00
12:35 am 00:35 Clear 64 17.5 61 16 91 91 Calm 30.09 1019 10 16 0.00 0.00
12:55 am 00:55 Clear 63 17.1 61 16 93 93 Calm 30.09 1019 10 16 0.00 0.00
1:15 am 01:15 Clear 64 17.5 61 16.2 92 92 Calm 30.06 1018 10 16 0.00 0.00
1:35 am 01:35 Clear 63 17.3 61 16.2 93 93 Calm 30.06 1018 10 16 0.00 0.00
1:55 am 01:55 Clear 64 17.5 62 16.5 94 94 Calm 30.06 1018 10 16 0.00 0.00
2:15 am 02:15 Clear 62 16.9 61 16.2 96 96 Calm 30.06 1018 10 16 0.00 0.00
2:35 am 02:35 Clear 63 17.3 62 16.6 96 96 Calm 30.06 1018 10 16 0.00 0.00
2:55 am 02:55 Clear 63 17.1 62 16.4 96 96 Calm 30.06 1018 10 16 0.00 0.00
3:15 am 03:15 Clear 62 16.7 61 16.1 96 96 Calm 30.06 1018 10 16 0.00 0.00
3:35 am 03:35 Clear 63 17 62 16.5 97 97 Calm 30.06 1018 10 16 0.00 0.00
3:55 am 03:55 Clear 62 16.7 61 16.3 98 98 Calm 30.06 1018 7 11 0.00 0.00
4:15 am 04:15 Clear 63 17.2 62 16.6 96 96 Calm 30.06 1018 10 16 0.00 0.00
4:35 am 04:35 Clear 63 17.2 62 16.6 96 96 Calm 30.06 1018 7 11 0.00 0.00
4:55 am 04:55 Clear with Mist and Fog 62 16.7 62 16.4 98 98 Calm 30.06 1018 5 8 0.00 0.00
5:15 am 05:15 Clear with Mist and Fog 62 16.7 62 16.5 99 99 Calm 30.06 1018 4 6 0.00 0.00
6:00 am 06:00 Mostly Clear 61 16 61 16 100 100 Calm 30.06 1018 7 11 0.00 0.00
6:50 am 06:50 Mostly Sunny 61 16 61 16 100 100 Calm 30.09 1019 7 11 0.00 0.00
7:50 am 07:50 Mostly Sunny 66 19 63 17 88 88 E 6 9 30.12 1020 7 11 0.00 0.00
8:45 am 08:45 Partly Cloudy 66 19 63 17 88 88 E 6 9 30.15 1021 7 11 0.00 0.00
10:50 am 10:50 Mostly Cloudy 79 26 61 16 54 54 ESE 12 19 30.15 1021 7 11 0.00 0.00
11:50 am 11:50 Mostly Cloudy 77 25 61 16 57 57 ESE 12 19 30.18 1022 10 16 0.00 0.00
12:55 pm 12:55 Mostly Cloudy 79 26 59 15 51 51 undefined N/A 30.15 1021 10 16 0.00 0.00
1:45 pm 13:45 Mostly Cloudy 81 27 57 14 45 45 ESE 12 19 30.15 1021 10 16 0.00 0.00
9:50 pm 21:50 Partly Cloudy 72 22 66 19 83 83 SE 10 17 30.12 1020 10 16 0.00 0.00
10:15 pm 22:15 Partly Cloudy 71 21.4 66 18.9 86 86 ESE 6 9 30.12 1020 10 16 0.00 0.00
10:35 pm 22:35 Partly Cloudy 71 21.4 66 19.1 87 87 ESE 7 11 30.12 1020 10 16 0.00 0.00
10:55 pm 22:55 Partly Cloudy 71 21.4 67 19.4 88 88 ESE 7 11 30.12 1020 10 16 0.00 0.00
11:15 pm 23:15 Partly Cloudy 70 21.2 67 19.5 90 90 E 7 11 30.12 1020 10 16 0.00 0.00
11:35 pm 23:35 Mostly Cloudy 70 21.2 67 19.6 91 91 E 6 9 30.12 1020 10 16 0.00 0.00
11:55 pm 23:55 Cloudy 71 21.5 68 20.1 92 92 ESE 5 7 30.09 1019 10 16 0.00 0.00

Powered by AerisWeather